WI0K Weather Reports


Display with metric or nautical units.
time (UTC)temp
F
wind
direction
speed
MPH
gust
MPH
rain 1hr
in
rain 24hr
in
rain mn
in
humidity
%
barometer
mb
20260906212949 90 151 2.0 4.0 0.00 0.00 0.00 34 1016.5
20260906212446 90 97 0.0 1.0 0.00 0.00 0.00 34 1016.6
20260906211946 90 150 2.0 2.0 0.00 0.00 0.00 33 1016.8
20260906211439 90 155 1.0 2.0 0.00 0.00 0.00 33 1016.8
20260906210938 89 239 1.0 1.0 0.00 0.00 0.00 34 1016.8
20260906210437 89 41 1.0 1.0 0.00 0.00 0.00 33 1016.9
20260906205936 89 73 2.0 3.0 0.00 0.00 0.00 33 1017.0
20260906205431 89 86 1.0 2.0 0.00 0.00 0.00 31 1017.0
20260906204930 89 99 2.0 3.0 0.00 0.00 0.00 32 1017.0
20260906204429 88 75 1.0 2.0 0.00 0.00 0.00 32 1017.2
20260906203928 89 74 1.0 2.0 0.00 0.00 0.00 32 1017.2
20260906203427 89 111 2.0 3.0 0.00 0.00 0.00 33 1017.4
20260906202926 89 124 0.0 1.0 0.00 0.00 0.00 32 1017.2
20260906202425 88 140 1.0 2.0 0.00 0.00 0.00 32 1017.4
20260906201925 88 83 2.0 3.0 0.00 0.00 0.00 32 1017.5
20260906201424 88 191 1.0 3.0 0.00 0.00 0.00 35 1017.5
20260906200923 88 204 1.0 1.0 0.00 0.00 0.00 35 1017.6
20260906200422 87 213 1.0 1.0 0.00 0.00 0.00 35 1017.6
20260906195921 86 120 1.0 1.0 0.00 0.00 0.00 36 1017.7
20260906195421 86 122 1.0 2.0 0.00 0.00 0.00 36 1017.8
20260906194920 86 49 1.0 2.0 0.00 0.00 0.00 36 1017.8
20260906194419 86 51 1.0 1.0 0.00 0.00 0.00 37 1017.9
20260906193919 85 77 0.0 1.0 0.00 0.00 0.00 37 1018.1
20260906193418 86 69 1.0 3.0 0.00 0.00 0.00 37 1018.1
20260906192917 86 64 1.0 2.0 0.00 0.00 0.00 37 1018.2
20260906192415 86 54 0.0 2.0 0.00 0.00 0.00 38 1018.2
20260906191915 86 155 1.0 1.0 0.00 0.00 0.00 36 1018.3
20260906191414 86 117 1.0 2.0 0.00 0.00 0.00 37 1018.4
20260906190913 85 100 1.0 1.0 0.00 0.00 0.00 37 1018.4
20260906190412 85 72 1.0 2.0 0.00 0.00 0.00 38 1018.5
20260906185912 85 71 0.0 1.0 0.00 0.00 0.00 40 1018.6
20260906185410 85 238 0.0 1.0 0.00 0.00 0.00 40 1018.8
20260906184910 84 159 0.0 1.0 0.00 0.00 0.00 40 1018.8
20260906184409 84 50 1.0 1.0 0.00 0.00 0.00 39 1018.9
20260906183908 83 55 0.0 1.0 0.00 0.00 0.00 43 1018.9
20260906183407 83 42 0.0 1.0 0.00 0.00 0.00 43 1019.0
20260906182907 82 113 0.0 1.0 0.00 0.00 0.00 43 1019.1
20260906182406 82 181 1.0 2.0 0.00 0.00 0.00 44 1019.2
20260906181905 81 130 1.0 2.0 0.00 0.00 0.00 46 1019.4
20260906181404 82 203 1.0 1.0 0.00 0.00 0.00 43 1019.5
20260906180904 82 229 1.0 1.0 0.00 0.00 0.00 44 1019.6
20260906180403 81 53 1.0 1.0 0.00 0.00 0.00 46 1019.7
20260906175902 81 46 1.0 1.0 0.00 0.00 0.00 48 1019.8
20260906175402 81 97 0.0 1.0 0.00 0.00 0.00 49 1019.8
20260906174901 81 51 0.0 2.0 0.00 0.00 0.00 49 1019.8
20260906174400 81 60 0.0 1.0 0.00 0.00 0.00 47 1019.9
20260906173859 80 275 0.0 0.0 0.00 0.00 0.00 51 1020.2
20260906173354 80 314 0.0 0.0 0.00 0.00 0.00 51 1020.2
20260906172853 80 37 1.0 1.0 0.00 0.00 0.00 51 1020.3
20260906172352 79 66 0.0 1.0 0.00 0.00 0.00 52 1020.3
20260906171851 79 9 0.0 0.0 0.00 0.00 0.00 52 1020.4
20260906171350 79 252 0.0 1.0 0.00 0.00 0.00 54 1020.5
20260906170849 79 206 0.0 0.0 0.00 0.00 0.00 54 1020.5
20260906170348 79 10 1.0 1.0 0.00 0.00 0.00 54 1020.7
20260906165847 78 69 0.0 1.0 0.00 0.00 0.00 54 1020.5
20260906165346 77 333 0.0 1.0 0.00 0.00 0.00 56 1020.7
20260906164846 77 263 0.0 1.0 0.00 0.00 0.00 56 1020.8
20260906164345 77 268 0.0 1.0 0.00 0.00 0.00 55 1020.8
20260906163844 76 0 0.0 0.0 0.00 0.00 0.00 58 833.4
20260906163343 76 54 0.0 0.0 0.00 0.00 0.00 59 1020.7
20260906162842 75 238 0.0 1.0 0.00 0.00 0.00 59 1020.8
20260906162342 76 48 1.0 2.0 0.00 0.00 0.00 57 1020.8
20260906161841 76 7 0.0 0.0 0.00 0.00 0.00 59 1020.8
20260906161340 75 290 0.0 1.0 0.00 0.00 0.00 61 1020.8
20260906160839 75 215 0.0 0.0 0.00 0.00 0.00 61 1020.8
20260906160338 75 37 1.0 2.0 0.00 0.00 0.00 59 1020.8
20260906155838 75 113 0.0 1.0 0.00 0.00 0.00 60 1020.8
20260906155337 75 50 0.0 1.0 0.00 0.00 0.00 60 1020.8
20260906154836 75 77 0.0 1.0 0.00 0.00 0.00 60 1020.7
20260906154336 74 32 0.0 1.0 0.00 0.00 0.00 62 1020.7
20260906153835 74 345 0.0 0.0 0.00 0.00 0.00 61 1020.8
20260906153334 73 280 0.0 0.0 0.00 0.00 0.00 64 1020.8
20260906152834 73 288 0.0 1.0 0.00 0.00 0.00 63 1020.9
20260906152333 72 276 0.0 1.0 0.00 0.00 0.00 64 1020.9
20260906151832 73 2 0.0 0.0 0.00 0.00 0.00 63 1020.9
20260906151331 72 77 0.0 0.0 0.00 0.00 0.00 64 1020.9
20260906150830 72 22 0.0 1.0 0.00 0.00 0.00 65 1020.9
20260906150330 72 33 1.0 1.0 0.00 0.00 0.00 65 1021.0
20260906145829 72 0 0.0 1.0 0.00 0.00 0.00 65 1020.9
20260906145328 71 87 0.0 0.0 0.00 0.00 0.00 68 1020.9
20260906144828 71 301 0.0 0.0 0.00 0.00 0.00 67 1020.8
20260906144328 71 304 0.0 0.0 0.00 0.00 0.00 68 1020.8
20260906143826 70 44 0.0 0.0 0.00 0.00 0.00 69 1020.9
20260906143325 70 307 0.0 1.0 0.00 0.00 0.00 70 1020.8
20260906142824 70 276 0.0 1.0 0.00 0.00 0.00 71 1020.9
20260906142324 69 306 0.0 1.0 0.00 0.00 0.00 71 1020.8
20260906141823 68 275 0.0 0.0 0.00 0.00 0.00 73 1020.9
20260906141323 68 274 0.0 1.0 0.00 0.00 0.00 74 1020.9
20260906140822 68 289 0.0 1.0 0.00 0.00 0.00 74 1020.8
20260906140321 67 293 0.0 0.0 0.00 0.00 0.00 76 1020.8
20260906135820 67 269 0.0 1.0 0.00 0.00 0.00 77 1020.9
20260906135319 67 281 0.0 1.0 0.00 0.00 0.00 78 1020.8
20260906134819 66 298 0.0 0.0 0.00 0.00 0.00 78 1020.8
20260906134318 65 252 0.0 0.0 0.00 0.00 0.00 80 1020.8
20260906133818 64 292 0.0 0.0 0.00 0.00 0.00 82 1020.8
20260906133317 64 252 0.0 1.0 0.00 0.00 0.00 84 1020.8
20260906132816 63 260 0.0 1.0 0.00 0.00 0.00 86 1020.8
20260906132316 63 253 0.0 1.0 0.00 0.00 0.00 86 1020.7
20260906131814 62 222 0.0 0.0 0.00 0.00 0.00 88 1020.5
20260906131313 61 258 0.0 0.0 0.00 0.00 0.00 90 1020.5
20260906130813 60 268 0.0 0.0 0.00 0.00 0.00 91 1020.5
20260906130312 60 234 1.0 1.0 0.00 0.00 0.00 91 1020.5
20260906125811 60 237 0.0 1.0 0.00 0.00 0.00 92 1020.5
20260906125311 60 224 0.0 1.0 0.00 0.00 0.00 92 1020.5
20260906124810 60 261 0.0 1.0 0.00 0.00 0.00 92 1020.4
20260906124309 60 247 0.0 0.0 0.00 0.00 0.00 92 1020.3
20260906123809 59 220 0.0 0.0 0.00 0.00 0.00 92 1020.3
20260906123308 59 246 0.0 0.0 0.00 0.00 0.00 92 1020.4
20260906122807 59 241 0.0 1.0 0.00 0.00 0.00 91 1020.5
20260906122307 59 264 0.0 0.0 0.00 0.00 0.00 91 1020.5
20260906121806 59 234 0.0 0.0 0.00 0.00 0.00 90 1020.5
20260906121305 60 237 0.0 0.0 0.00 0.00 0.00 89 1020.7
20260906120804 60 266 0.0 0.0 0.00 0.00 0.00 89 1020.7
20260906120304 60 248 0.0 1.0 0.00 0.00 0.00 89 1020.4
20260906115803 60 254 0.0 0.0 0.00 0.00 0.00 89 1020.4
20260906115306 60 290 0.0 0.0 0.00 0.00 0.00 88 1020.5
20260906114802 60 233 0.0 0.0 0.00 0.00 0.00 88 1020.7
20260906114301 61 262 0.0 0.0 0.00 0.00 0.00 87 1020.5
20260906113800 61 353 0.0 0.0 0.00 0.00 0.00 87 1020.5
20260906113300 61 245 0.0 1.0 0.00 0.00 0.00 87 1020.4
20260906112759 61 70 0.0 0.0 0.00 0.00 0.00 88 1020.4
20260906112258 61 287 0.0 0.0 0.00 0.00 0.00 86 1020.4
20260906111758 62 279 0.0 0.0 0.00 0.00 0.00 85 1020.5
20260906111257 62 244 0.0 0.0 0.00 0.00 0.00 84 1020.5
20260906110756 62 257 0.0 0.0 0.00 0.00 0.00 83 1020.3
20260906110255 63 46 0.0 1.0 0.00 0.00 0.00 82 1020.2
20260906105755 63 304 0.0 0.0 0.00 0.00 0.00 81 1020.3
20260906105254 63 43 0.0 1.0 0.00 0.00 0.00 81 1020.2
20260906104753 63 27 1.0 2.0 0.00 0.00 0.00 80 1020.2
20260906104253 64 35 1.0 1.0 0.00 0.00 0.00 80 1020.2
20260906103752 64 47 1.0 1.0 0.00 0.00 0.00 79 1020.2
20260906103251 64 192 0.0 0.0 0.00 0.00 0.00 79 1020.1
20260906102751 64 50 0.0 1.0 0.00 0.00 0.00 78 1020.1
20260906102249 64 112 0.0 1.0 0.00 0.00 0.00 78 832.7
20260906101748 64 250 0.0 1.0 0.00 0.00 0.00 79 1019.9
20260906101247 64 318 0.0 0.0 0.00 0.00 0.00 77 1019.8
20260906100747 64 334 0.0 0.0 0.00 0.00 0.00 76 1019.8
20260906100246 64 0 0.0 0.0 0.00 0.00 0.00 76 1019.9
20260906095745 65 262 0.0 0.0 0.00 0.00 0.00 75 1019.8
20260906095245 65 355 0.0 0.0 0.00 0.00 0.00 74 1019.9
20260906094744 65 22 0.0 1.0 0.00 0.00 0.00 73 1019.9
20260906094243 65 25 1.0 1.0 0.00 0.00 0.00 73 1020.1
20260906093743 65 312 0.0 0.0 0.00 0.00 0.00 73 1020.2
20260906093242 65 27 0.0 1.0 0.00 0.00 0.00 72 1020.2
20260906092741 64 35 0.0 1.0 0.00 0.00 0.00 73 1020.2
20260906092241 64 273 0.0 0.0 0.00 0.00 0.00 73 1020.1
20260906091740 65 247 0.0 0.0 0.00 0.00 0.00 73 1019.9
20260906091239 66 232 0.0 1.0 0.00 0.00 0.00 72 1019.8
20260906090738 67 280 0.0 0.0 0.00 0.00 0.00 68 1019.7
20260906090238 67 243 0.0 0.0 0.00 0.00 0.00 66 1019.8
20260906085737 67 77 0.0 0.0 0.00 0.00 0.00 66 1019.8
20260906085236 67 83 0.0 0.0 0.00 0.00 0.00 66 1019.8
20260906084736 68 114 0.0 0.0 0.00 0.00 0.00 65 1019.7
20260906084235 68 103 0.0 0.0 0.00 0.00 0.00 63 1019.8
20260906083734 68 309 0.0 0.0 0.00 0.00 0.00 63 1019.8
20260906083233 69 262 0.0 0.0 0.00 0.00 0.00 62 1019.7
20260906082733 69 76 1.0 1.0 0.00 0.00 0.00 62 1019.8
20260906082232 69 140 0.0 1.0 0.00 0.00 0.00 60 1019.8
20260906081731 69 210 0.0 1.0 0.00 0.00 0.00 59 1019.8
20260906081230 69 107 0.0 1.0 0.00 0.00 0.00 59 1019.8
20260906080730 70 246 0.0 0.0 0.00 0.00 0.00 58 1019.8
20260906080229 70 51 1.0 1.0 0.00 0.00 0.00 57 1019.8
20260906075728 70 59 1.0 2.0 0.00 0.00 0.00 55 1019.8
20260906075228 70 72 1.0 1.0 0.00 0.00 0.00 53 1019.8
20260906074727 70 37 1.0 1.0 0.00 0.00 0.00 53 1019.8
20260906074226 71 28 1.0 1.0 0.00 0.00 0.00 51 1019.6
20260906073725 71 34 1.0 2.0 0.00 0.00 0.00 50 1019.5
20260906073225 71 35 0.0 1.0 0.00 0.00 0.00 49 1019.5
20260906072724 71 38 0.0 1.0 0.00 0.00 0.00 48 1019.5
20260906072223 72 31 1.0 1.0 0.00 0.00 0.00 47 1019.4
20260906071723 72 42 1.0 1.0 0.00 0.00 0.00 46 1019.4
20260906071222 72 39 1.0 2.0 0.00 0.00 0.00 45 1019.4
20260906070722 72 40 1.0 1.0 0.00 0.00 0.00 44 1019.4
20260906070221 72 39 1.0 1.0 0.00 0.00 0.00 44 1019.2
20260906065720 72 37 1.0 1.0 0.00 0.00 0.00 44 1019.4
20260906065219 72 260 0.0 0.0 0.00 0.00 0.00 44 1019.2
20260906064719 72 32 0.0 1.0 0.00 0.00 0.00 44 1019.1
20260906064218 72 305 0.0 0.0 0.00 0.00 0.00 44 1019.1
20260906063717 72 40 0.0 1.0 0.00 0.00 0.00 44 1019.0
20260906063217 71 27 1.0 1.0 0.00 0.00 0.00 46 1019.1
20260906062716 70 41 0.0 0.0 0.00 0.00 0.00 47 1019.5
20260906062215 71 273 0.0 0.0 0.00 0.00 0.00 47 1019.6
20260906061715 72 286 0.0 0.0 0.00 0.00 0.00 47 1019.6
20260906061214 72 244 0.0 0.0 0.00 0.00 0.00 46 1019.6
20260906060713 72 236 0.0 0.0 0.00 0.00 0.00 45 1019.6
20260906060213 72 266 0.0 0.0 0.00 0.00 0.00 46 1019.7
20260906055712 73 243 0.0 0.0 0.00 0.00 0.00 46 1019.6
20260906055211 73 0 0.0 0.0 0.00 0.00 0.00 45 1019.7
20260906054711 73 242 0.0 0.0 0.00 0.00 0.00 44 1019.7
20260906054209 73 36 0.0 0.0 0.00 0.00 0.00 44 1019.6
20260906053708 73 351 0.0 0.0 0.00 0.00 0.00 45 1019.5
20260906053208 73 126 0.0 0.0 0.00 0.00 0.00 46 1019.6
20260906052707 73 284 0.0 0.0 0.00 0.00 0.00 45 1019.7
20260906052206 73 213 0.0 0.0 0.00 0.00 0.00 45 1019.7
20260906051705 73 54 0.0 0.0 0.00 0.00 0.00 44 1019.7
20260906051205 73 341 0.0 0.0 0.00 0.00 0.00 45 1019.7
20260906050704 73 258 0.0 0.0 0.00 0.00 0.00 45 1019.8
20260906050203 73 268 0.0 1.0 0.00 0.00 0.00 45 1019.8
20260906045702 73 261 0.0 1.0 0.00 0.00 0.00 44 1019.8
20260906045202 74 245 0.0 0.0 0.00 0.00 0.00 44 1019.8
20260906044701 74 240 0.0 0.0 0.00 0.00 0.00 44 1019.9
20260906044200 73 152 1.0 1.0 0.00 0.00 0.00 44 1020.2
20260906043700 73 248 1.0 1.0 0.00 0.00 0.00 46 1020.1
20260906043159 74 251 1.0 1.0 0.00 0.00 0.00 45 1019.9
20260906042658 74 36 0.0 1.0 0.00 0.00 0.00 42 1019.8
20260906042158 74 23 0.0 1.0 0.00 0.00 0.00 41 1019.8
20260906041657 75 226 1.0 1.0 0.00 0.00 0.00 41 1019.9
20260906041156 76 160 1.0 1.0 0.00 0.00 0.00 38 1019.8
20260906040656 76 67 1.0 1.0 0.00 0.00 0.00 36 1019.4
20260906040155 75 56 0.0 1.0 0.00 0.00 0.00 37 1019.1
20260906035654 75 34 0.0 1.0 0.00 0.00 0.00 38 1019.1
20260906035154 76 25 0.0 1.0 0.00 0.00 0.00 37 1019.1
20260906034653 76 34 1.0 2.0 0.00 0.00 0.00 36 1019.1
20260906034152 76 111 0.0 1.0 0.00 0.00 0.00 37 1019.2
20260906033652 76 9 0.0 1.0 0.00 0.00 0.00 36 1019.2
20260906033151 77 69 0.0 0.0 0.00 0.00 0.00 35 1019.1
20260906032650 77 12 0.0 1.0 0.00 0.00 0.00 34 1019.0
20260906032150 78 66 0.0 1.0 0.00 0.00 0.00 34 1019.0
20260906031649 78 31 0.0 0.0 0.00 0.00 0.00 33 1018.9
20260906031148 78 63 0.0 1.0 0.00 0.00 0.00 33 1018.8
20260906030648 79 72 1.0 1.0 0.00 0.00 0.00 33 1018.8
20260906030147 79 54 1.0 1.0 0.00 0.00 0.00 32 1018.6
20260906025646 79 43 1.0 1.0 0.00 0.00 0.00 32 1018.6
20260906025146 79 36 1.0 1.0 0.00 0.00 0.00 32 1018.5
20260906024645 79 30 1.0 1.0 0.00 0.00 0.00 32 1018.5
20260906024144 79 26 1.0 1.0 0.00 0.00 0.00 33 1018.5
20260906023644 80 57 0.0 1.0 0.00 0.00 0.00 32 1018.5
20260906023143 80 44 0.0 1.0 0.00 0.00 0.00 32 1018.4
20260906022642 80 38 0.0 1.0 0.00 0.00 0.00 32 1018.4
20260906022142 81 35 0.0 1.0 0.00 0.00 0.00 31 1018.4
20260906021641 81 15 1.0 1.0 0.00 0.00 0.00 30 1018.3
20260906021140 82 26 1.0 1.0 0.00 0.00 0.00 29 1018.2
20260906020640 82 27 1.0 2.0 0.00 0.00 0.00 29 1018.1
20260906020139 82 31 1.0 2.0 0.00 0.00 0.00 28 1017.9
20260906015638 82 32 1.0 2.0 0.00 0.00 0.00 28 1017.8
20260906015138 83 36 1.0 2.0 0.00 0.00 0.00 28 1017.7
20260906014637 83 39 1.0 1.0 0.00 0.00 0.00 28 1017.7
20260906014136 83 8 0.0 1.0 0.00 0.00 0.00 28 1017.6
20260906013636 84 30 0.0 1.0 0.00 0.00 0.00 28 1017.6
20260906013133 84 37 0.0 1.0 0.00 0.00 0.00 27 1017.5
20260906012633 84 41 1.0 2.0 0.00 0.00 0.00 26 1017.5
20260906012132 84 44 1.0 1.0 0.00 0.00 0.00 26 1017.5
20260906011631 84 55 0.0 0.0 0.00 0.00 0.00 27 1017.5
20260906011130 84 70 0.0 0.0 0.00 0.00 0.00 27 1017.4
20260906010629 85 118 0.0 1.0 0.00 0.00 0.00 29 1017.4
20260906010129 85 114 0.0 1.0 0.00 0.00 0.00 29 1017.4
20260906005628 86 0 0.0 0.0 0.00 0.00 0.00 26 1017.4
20260906005127 86 194 0.0 0.0 0.00 0.00 0.00 26 1017.4
20260906004627 86 0 0.0 0.0 0.00 0.00 0.00 25 1017.4
20260906004126 87 75 0.0 0.0 0.00 0.00 0.00 25 1017.4
20260906003625 87 0 0.0 0.0 0.00 0.00 0.00 25 1017.4
20260906003124 88 48 0.0 1.0 0.00 0.00 0.00 25 1017.4
20260906002624 88 116 0.0 0.0 0.00 0.00 0.00 25 1017.2
20260906002123 88 66 0.0 1.0 0.00 0.00 0.00 25 1017.2
20260906001622 89 46 1.0 1.0 0.00 0.00 0.00 23 1017.2
20260906001121 89 58 1.0 2.0 0.00 0.00 0.00 23 1017.1
20260906000621 90 6 0.0 0.0 0.00 0.00 0.00 24 1017.1
20260906000120 90 45 0.0 1.0 0.00 0.00 0.00 23 1017.1
20260905235619 90 43 1.0 1.0 0.00 0.00 0.00 21 1017.0
20260905235119 90 128 0.0 0.0 0.00 0.00 0.00 23 1017.0
20260905234618 90 37 1.0 1.0 0.00 0.00 0.00 22 1017.0
20260905234117 90 42 0.0 1.0 0.00 0.00 0.00 24 1017.0
20260905233616 90 0 0.0 0.0 0.00 0.00 0.00 24 1017.0
20260905233116 90 197 0.0 0.0 0.00 0.00 0.00 24 1017.0
20260905232615 91 229 0.0 1.0 0.00 0.00 0.00 22 1017.0
20260905232114 91 148 0.0 1.0 0.00 0.00 0.00 22 1016.9
20260905231613 91 194 0.0 1.0 0.00 0.00 0.00 22 1016.9
20260905231113 91 31 1.0 2.0 0.00 0.00 0.00 21 1017.0
20260905230612 91 39 1.0 1.0 0.00 0.00 0.00 22 1017.0
20260905230111 91 64 1.0 1.0 0.00 0.00 0.00 22 1017.0
20260905225610 91 34 1.0 2.0 0.00 0.00 0.00 22 1017.0
20260905225110 91 53 1.0 1.0 0.00 0.00 0.00 23 1016.9
20260905224609 91 57 1.0 1.0 0.00 0.00 0.00 23 1016.9
20260905224108 90 164 0.0 1.0 0.00 0.00 0.00 23 1016.9
20260905223608 90 29 1.0 2.0 0.00 0.00 0.00 23 1016.9
20260905223107 90 45 1.0 2.0 0.00 0.00 0.00 22 1016.9
20260905222606 90 63 1.0 2.0 0.00 0.00 0.00 23 1016.9
20260905222105 90 68 0.0 1.0 0.00 0.00 0.00 25 1017.0
20260905221605 90 36 1.0 2.0 0.00 0.00 0.00 23 1017.0
20260905221104 90 44 1.0 2.0 0.00 0.00 0.00 23 1017.0
20260905220603 90 100 0.0 1.0 0.00 0.00 0.00 23 1017.1
20260905215601 91 53 1.0 2.0 0.00 0.00 0.00 22 1017.2
20260905215100 91 140 1.0 2.0 0.00 0.00 0.00 21 830.5
20260905214559 91 220 0.0 0.0 0.00 0.00 0.00 23 830.5
20260905214058 91 94 1.0 1.0 0.00 0.00 0.00 22 1017.4
20260905213558 90 155 1.0 2.0 0.00 0.00 0.00 21 1017.5